This is the latest recevied weather packets stored in our database for station/object W8LMG. If no packets are shown the sender has not sent any weather packets the latest 10 day(s).
| Time | Temp. | Humidity | Pressure | Rain* | Wind** | Luminosity | Snow |
|---|---|---|---|---|---|---|---|
| 1788616988 | 18.89° C | 99% | 1018 hPa | 4.83 mm | - | 5 W/m² | - |
| 1788616687 | 18.89° C | 99% | 1018.1 hPa | 3.56 mm | - | 4 W/m² | - |
| 1788616383 | 18.89° C | 99% | 1018 hPa | 3.05 mm | - | 3 W/m² | - |
| 1788616084 | 18.89° C | 99% | 1018.2 hPa | 1.27 mm | - | 4 W/m² | - |
| 1788615777 | 18.89° C | 99% | 1018.1 hPa | 1.78 mm | - | 4 W/m² | - |
| 1788615477 | 18.89° C | 99% | 1018.2 hPa | 1.78 mm | - | 3 W/m² | - |
| 1788615173 | 18.89° C | 99% | 1018.1 hPa | 0 mm | - | 3 W/m² | - |
| 1788614871 | 18.89° C | 99% | 1018 hPa | 0 mm | - | 3 W/m² | - |
| 1788614567 | 18.89° C | 99% | 1017.9 hPa | 0 mm | - | 4 W/m² | - |
| 1788614262 | 18.89° C | 99% | 1018.1 hPa | 0 mm | - | 3 W/m² | - |
| 1788613958 | 18.89° C | 99% | 1018 hPa | 0 mm | - | 1 W/m² | - |
| 1788613658 | 18.33° C | 99% | 1017.4 hPa | 0 mm | - | 4 W/m² | - |
| 1788613357 | 18.33° C | 99% | 1017 hPa | 0 mm | - | 3 W/m² | - |
| 1788613052 | 18.33° C | 99% | 1017 hPa | 0 mm | - | 4 W/m² | - |
| 1788612747 | 18.33° C | 99% | 1016.9 hPa | 0 mm | - | 6 W/m² | - |
| 1788612444 | 18.33° C | 99% | 1016.5 hPa | 0 mm | - | 8 W/m² | - |
| 1788612140 | 18.89° C | 99% | 1016.2 hPa | 0 mm | - | 11 W/m² | - |
| 1788611840 | 18.89° C | 99% | 1016.4 hPa | 0 mm | - | 19 W/m² | - |
| 1788611537 | 18.33° C | 99% | 1016.5 hPa | 0 mm | - | 23 W/m² | - |
| 1788611237 | 18.33° C | 99% | 1016.3 hPa | 0 mm | - | 19 W/m² | - |
| 1788610931 | 18.33° C | 99% | 1016.3 hPa | 0 mm | - | 19 W/m² | - |
| 1788610626 | 18.33° C | 99% | 1016.5 hPa | 0 mm | - | 23 W/m² | - |
| 1788610322 | 18.33° C | 99% | 1016.4 hPa | 0 mm | - | 26 W/m² | - |
| 1788610021 | 18.33° C | 99% | 1016.5 hPa | 0 mm | - | 23 W/m² | - |
| 1788609716 | 18.33° C | 99% | 1016.3 hPa | 0 mm | - | 22 W/m² | - |
* Rain latest hour (hover to see other rain measurements)
** Current wind speed in m/s (hover to see current wind gust speed)